Aurora, IL

7:45 AM CDT on October 20, 2017 (GMT -0500)
Aurora Municipal

Weather History for KARR - September, 2014

Change the Weather History Date:

Thursday, September 11, 2014

  Actual Average Record
Temperature  
Mean Temperature 52 °F 65 °F  
Max Temperature 55 °F 77 °F 93 °F (2000)
Min Temperature 49 °F 53 °F 41 °F (1999)
Degree Days  
Heating Degree Days 13 3  
Month to date heating degree days 16 19  
Since 1 July heating degree days 37 43  
Cooling Degree Days 0 3  
Month to date cooling degree days 52 39  
Year to date cooling degree days 682 623  
Growing Degree Days 2 (Base 50)    
Moisture  
Dew Point 43 °F    
Average Humidity 73    
Maximum Humidity 80    
Minimum Humidity 66    
Precipitation  
Precipitation 0.00 in 0.11 in 1.39 in (2000)
Month to date precipitation 2.17 1.11  
Year to date precipitation 25.04 26.31  
Sea Level Pressure  
Sea Level Pressure 30.16 in    
Wind  
Wind Speed 9 mph (North)    
Max Wind Speed 18 mph    
Max Gust Speed 23 mph    
Visibility 10 miles    
Events      
T = Trace of Precipitation, MM = Missing Value Source: NWS Daily Summary

Daily Weather History Graph

Daily Weather History Graph

Search for Another Location

Airport or City:

Trip Planner

Search our weather history database for the weather conditions in past years. The results will help you decide how hot, cold, wet, or windy it might be!

Date:

Astronomy

Sep. 11, 2014 Rise Set
Actual Time 6:30 AM CDT 7:10 PM CDT
Civil Twilight 6:01 AM CDT 7:38 PM CDT
Nautical Twilight 5:28 AM CDT 8:11 PM CDT
Astronomical Twilight 4:54 AM CDT 8:45 PM CDT
Moon 8:45 PM CDT (9/11) 9:29 AM CDT (9/11)
Length of Visible Light 13h 36m
Length of Day
12h 40m
Waning Gibbous, 90% of the Moon is Illuminated
Sep 11
Waning Gibbous
Sep 15
Last Quarter
Sep 24
New
Oct 1
First Quarter
Oct 8
Full

Hourly Weather History & Observations

Time (CDT) Temp. Dew Point Humidity Pressure Visibility Wind Dir Wind Speed Gust Speed Precip Events Conditions
12:52 AM 55.0 °F 48.0 °F 77% 29.91 in 10.0 mi NNW 16.1 mph - N/A   Overcast
1:52 AM 55.0 °F 48.0 °F 77% 29.94 in 10.0 mi North 11.5 mph - N/A   Overcast
2:52 AM 53.1 °F 46.0 °F 77% 29.97 in 10.0 mi NW 15.0 mph 21.9 mph N/A   Overcast
3:52 AM 51.1 °F 44.1 °F 77% 29.99 in 10.0 mi North 13.8 mph - N/A   Overcast
4:52 AM 51.1 °F 43.0 °F 74% 30.02 in 10.0 mi NNW 11.5 mph - N/A   Overcast
5:52 AM 50.0 °F 42.1 °F 74% 30.05 in 10.0 mi North 12.7 mph - N/A   Overcast
6:52 AM 50.0 °F 43.0 °F 77% 30.08 in 10.0 mi NNW 9.2 mph - N/A   Overcast
7:52 AM 48.9 °F 42.1 °F 77% 30.12 in 9.0 mi NNW 11.5 mph - N/A   Overcast
8:52 AM 48.9 °F 42.1 °F 77% 30.13 in 9.0 mi North 11.5 mph - N/A   Overcast
9:52 AM 50.0 °F 42.1 °F 74% 30.17 in 9.0 mi North 10.4 mph - N/A   Overcast
10:52 AM 50.0 °F 43.0 °F 77% 30.19 in 9.0 mi NNW 10.4 mph - N/A   Overcast
11:52 AM 51.1 °F 43.0 °F 74% 30.19 in 9.0 mi North 10.4 mph - N/A   Overcast
12:52 PM 51.1 °F 42.1 °F 71% 30.19 in 9.0 mi North 6.9 mph - N/A   Overcast
1:52 PM 52.0 °F 43.0 °F 71% 30.20 in 9.0 mi NNW 6.9 mph - N/A   Overcast
3:52 PM 53.1 °F 43.0 °F 69% 30.20 in 10.0 mi North 9.2 mph - N/A   Overcast
4:52 PM 53.1 °F 43.0 °F 69% 30.21 in 10.0 mi North 9.2 mph - N/A   Overcast
5:52 PM 53.1 °F 43.0 °F 69% 30.23 in 10.0 mi North 8.1 mph - N/A   Overcast
6:52 PM 52.0 °F 43.0 °F 71% 30.24 in 10.0 mi NNE 6.9 mph - N/A   Overcast
7:52 PM 51.1 °F 43.0 °F 74% 30.26 in 10.0 mi North 6.9 mph - N/A   Overcast
8:52 PM 51.1 °F 43.0 °F 74% 30.28 in 10.0 mi NNE 10.4 mph - N/A   Overcast
9:52 PM 50.0 °F 42.1 °F 74% 30.30 in 10.0 mi North 5.8 mph - N/A   Overcast
10:52 PM 51.1 °F 42.1 °F 71% 30.31 in 10.0 mi NE 5.8 mph - N/A   Overcast
11:34 PM 50.0 °F 43.0 °F 77% 30.30 in 10.0 mi North 4.6 mph - N/A   Overcast
11:52 PM 50.0 °F 43.0 °F 77% 30.30 in 10.0 mi North 4.6 mph - N/A   Overcast